When you browse on this site, cookies collect data to enhance your experience and personalize the content and advertising you see.
Visit our Privacy Policy to learn more. By continuing to use the site, you agree to this use of cookies and data.
  • In Lithuania
  • List of Countries
  • For 7 days
  • Water Temperature
  • Satellite Maps
  • Weather Map
  • Weather Widgets
  • user-avatar
    Login

    Hourly Weather Kitzbuhel

    Today, 26 June, Wednesday

    Time Temperature Precipitation Wind Pressure Humidity
    00:00 +20°C° 0 mm 1 mps 685 mmHg 72%
    01:00 +19°C° 0 mm 2 mps 685 mmHg 68%
    02:00 +19°C° 0 mm 2 mps 684 mmHg 64%
    03:00 +18°C° 0 mm 2 mps 684 mmHg 61%
    04:00 +19°C° 0 mm 1 mps 684 mmHg 57%
    05:00 +21°C° 0 mm 1 mps 685 mmHg 56%
    06:00 +23°C° 0 mm 1 mps 685 mmHg 55%
    07:00 +25°C° 0 mm 1 mps 686 mmHg 53%
    08:00 +27°C° 0 mm 1 mps 686 mmHg 47%
    09:00 +30°C° 0 mm 1 mps 687 mmHg 40%
    10:00 +32°C° 0 mm 1 mps 687 mmHg 34%
    11:00 +33°C° 0 mm 1 mps 687 mmHg 31%
    12:00 +33°C° 0 mm 1 mps 687 mmHg 29%
    13:00 +35°C° 0 mm 2 mps 687 mmHg 26%
    14:00 +34°C° 0 mm 2 mps 687 mmHg 28%
    15:00 +34°C° 0 mm 2 mps 687 mmHg 31%
    16:00 +34°C° 0 mm 2 mps 686 mmHg 33%
    17:00 +30°C° 0 mm 1 mps 686 mmHg 45%
    18:00 +28°C° 0 mm 1 mps 685 mmHg 58%
    19:00 +24°C° 0 mm 0 mps 685 mmHg 70%
    20:00 +25°C° 0 mm 1 mps 685 mmHg 70%
    21:00 +23°C° 0 mm 1 mps 685 mmHg 71%
    22:00 +22°C° 0 mm 1 mps 685 mmHg 71%
    23:00 +21°C° 0 mm 1 mps 685 mmHg 69%

    Tomorrow, 27 June, Thursday

    Time Temperature Precipitation Wind Pressure Humidity
    00:00 +21°C° 0 mm 1 mps 685 mmHg 66%
    01:00 +21°C° 0 mm 1 mps 685 mmHg 64%
    02:00 +20°C° 0 mm 1 mps 684 mmHg 63%
    03:00 +20°C° 0 mm 1 mps 684 mmHg 62%
    04:00 +20°C° 0 mm 1 mps 683 mmHg 60%
    05:00 +21°C° 0 mm 1 mps 684 mmHg 59%
    06:00 +23°C° 0 mm 1 mps 684 mmHg 58%
    07:00 +25°C° 0 mm 1 mps 685 mmHg 57%
    08:00 +27°C° 0 mm 1 mps 685 mmHg 51%
    09:00 +29°C° 0 mm 1 mps 685 mmHg 45%
    10:00 +31°C° 0 mm 2 mps 685 mmHg 40%
    11:00 +31°C° 0.1 mm 2 mps 685 mmHg 41%
    12:00 +31°C° 0.1 mm 2 mps 685 mmHg 43%
    13:00 +31°C° 0.1 mm 3 mps 685 mmHg 45%
    14:00 +31°C° 0.4 mm 3 mps 684 mmHg 49%
    15:00 +30°C° 0.4 mm 2 mps 684 mmHg 53%
    16:00 +29°C° 0.4 mm 2 mps 684 mmHg 57%
    17:00 +27°C° 1.3 mm 2 mps 683 mmHg 68%
    18:00 +25°C° 1.3 mm 1 mps 683 mmHg 79%
    19:00 +23°C° 1.3 mm 1 mps 682 mmHg 91%
    20:00 +22°C° 0.2 mm 1 mps 682 mmHg 92%
    21:00 +21°C° 0.2 mm 1 mps 682 mmHg 94%
    22:00 +17°C° 0.2 mm 0 mps 683 mmHg 95%
    23:00 +17°C° 0 mm 0 mps 682 mmHg 96%

    Day after tomorrow, 28 June, Friday

    Time Temperature Precipitation Wind Pressure Humidity
    00:00 +16°C° 0 mm 0 mps 682 mmHg 96%
    01:00 +18°C° 0 mm 1 mps 682 mmHg 97%
    02:00 +15°C° 0 mm 0 mps 682 mmHg 97%
    03:00 +15°C° 0 mm 0 mps 682 mmHg 97%
    04:00 +15°C° 0 mm 0 mps 682 mmHg 97%
    05:00 +16°C° 0 mm 0 mps 682 mmHg 96%
    06:00 +17°C° 0 mm 0 mps 682 mmHg 95%
    07:00 +18°C° 0 mm 0 mps 682 mmHg 93%
    08:00 +21°C° 0 mm 1 mps 682 mmHg 83%
    09:00 +23°C° 0 mm 1 mps 682 mmHg 72%
    10:00 +25°C° 0 mm 1 mps 682 mmHg 62%
    11:00 +25°C° 0 mm 2 mps 682 mmHg 55%
    12:00 +26°C° 0 mm 2 mps 682 mmHg 48%
    13:00 +27°C° 0 mm 2 mps 682 mmHg 41%
    14:00 +27°C° 0 mm 2 mps 682 mmHg 43%
    15:00 +26°C° 0 mm 2 mps 682 mmHg 44%
    16:00 +26°C° 0 mm 2 mps 682 mmHg 46%
    17:00 +25°C° 0 mm 2 mps 682 mmHg 55%
    18:00 +23°C° 0 mm 2 mps 681 mmHg 65%
    19:00 +21°C° 0 mm 1 mps 681 mmHg 75%
    20:00 +20°C° 0 mm 1 mps 681 mmHg 81%
    21:00 +18°C° 0 mm 1 mps 681 mmHg 87%
    22:00 +14°C° 0 mm 0 mps 681 mmHg 93%
    23:00 +14°C° 0 mm 1 mps 681 mmHg 93%

    29 June, Saturday

    Time Temperature Precipitation Wind Pressure Humidity
    00:00 +14°C° 0 mm 1 mps 681 mmHg 92%
    01:00 +14°C° 0 mm 1 mps 681 mmHg 92%
    02:00 +14°C° 0 mm 1 mps 680 mmHg 91%
    03:00 +13°C° 0 mm 1 mps 680 mmHg 90%
    04:00 +13°C° 0 mm 1 mps 680 mmHg 88%
    05:00 +15°C° 0 mm 1 mps 680 mmHg 81%
    06:00 +16°C° 0 mm 0 mps 681 mmHg 74%
    07:00 +18°C° 0 mm 0 mps 681 mmHg 67%
    08:00 +23°C° 0 mm 1 mps 682 mmHg 58%
    09:00 +25°C° 0 mm 1 mps 682 mmHg 49%
    10:00 +27°C° 0 mm 1 mps 683 mmHg 40%
    11:00 +28°C° 0 mm 1 mps 682 mmHg 37%
    12:00 +29°C° 0 mm 1 mps 682 mmHg 34%
    13:00 +30°C° 0 mm 2 mps 682 mmHg 31%
    14:00 +29°C° 0 mm 2 mps 682 mmHg 34%
    15:00 +29°C° 0 mm 2 mps 682 mmHg 37%
    16:00 +29°C° 0 mm 2 mps 682 mmHg 40%
    17:00 +27°C° 0 mm 2 mps 681 mmHg 52%
    18:00 +25°C° 0 mm 1 mps 681 mmHg 65%
    19:00 +24°C° 0 mm 1 mps 681 mmHg 77%
    20:00 +22°C° 0 mm 1 mps 681 mmHg 79%
    21:00 +20°C° 0 mm 1 mps 681 mmHg 82%
    22:00 +19°C° 0 mm 1 mps 681 mmHg 84%
    23:00 +19°C° 0 mm 1 mps 681 mmHg 83%

    30 June, Sunday

    Time Temperature Precipitation Wind Pressure Humidity
    00:00 +18°C° 0 mm 1 mps 681 mmHg 82%
    01:00 +17°C° 0 mm 2 mps 680 mmHg 81%
    02:00 +17°C° 0 mm 2 mps 680 mmHg 80%
    03:00 +18°C° 0 mm 1 mps 680 mmHg 79%
    04:00 +16°C° 0 mm 1 mps 680 mmHg 77%
    05:00 +19°C° 0 mm 1 mps 681 mmHg 72%
    06:00 +22°C° 0 mm 1 mps 681 mmHg 67%
    07:00 +24°C° 0 mm 1 mps 682 mmHg 62%
    08:00 +26°C° 0 mm 1 mps 682 mmHg 54%
    09:00 +28°C° 0 mm 1 mps 682 mmHg 47%
    10:00 +30°C° 0 mm 1 mps 683 mmHg 39%
    11:00 +31°C° 0 mm 1 mps 683 mmHg 37%
    12:00 +32°C° 0 mm 2 mps 683 mmHg 34%
    13:00 +32°C° 0 mm 2 mps 683 mmHg 32%
    14:00 +32°C° 0 mm 2 mps 683 mmHg 33%
    15:00 +32°C° 0 mm 2 mps 682 mmHg 35%
    16:00 +31°C° 0 mm 2 mps 682 mmHg 36%
    17:00 +29°C° 0 mm 2 mps 682 mmHg 46%
    18:00 +28°C° 0 mm 1 mps 682 mmHg 57%
    19:00 +26°C° 0 mm 1 mps 682 mmHg 68%
    20:00 +24°C° 0 mm 1 mps 682 mmHg 71%
    21:00 +22°C° 0 mm 1 mps 682 mmHg 73%
    22:00 +20°C° 0 mm 1 mps 682 mmHg 76%
    23:00 +20°C° 0 mm 1 mps 681 mmHg 75%

    1 July, Monday

    Time Temperature Precipitation Wind Pressure Humidity
    00:00 +19°C° 0 mm 1 mps 681 mmHg 73%
    01:00 +19°C° 0 mm 1 mps 681 mmHg 72%
    02:00 +18°C° 0 mm 2 mps 681 mmHg 68%
    03:00 +18°C° 0 mm 2 mps 680 mmHg 65%
    04:00 +17°C° 0 mm 2 mps 680 mmHg 61%
    05:00 +20°C° 0 mm 1 mps 680 mmHg 58%
    06:00 +22°C° 0 mm 1 mps 681 mmHg 55%
    07:00 +24°C° 0 mm 1 mps 681 mmHg 52%
    08:00 +27°C° 0 mm 1 mps 681 mmHg 45%
    09:00 +29°C° 0 mm 1 mps 682 mmHg 38%
    10:00 +31°C° 0 mm 1 mps 682 mmHg 31%
    11:00 +32°C° 0 mm 1 mps 682 mmHg 30%
    12:00 +32°C° 0 mm 2 mps 682 mmHg 29%
    13:00 +34°C° 0 mm 2 mps 682 mmHg 28%
    14:00 +31°C° 0.2 mm 2 mps 681 mmHg 35%
    15:00 +30°C° 0.2 mm 2 mps 680 mmHg 42%
    16:00 +28°C° 0.2 mm 2 mps 680 mmHg 50%
    17:00 +25°C° 3.8 mm 2 mps 680 mmHg 64%
    18:00 +21°C° 3.8 mm 2 mps 680 mmHg 79%
    19:00 +17°C° 3.8 mm 2 mps 680 mmHg 93%
    20:00 +17°C° 0.2 mm 2 mps 680 mmHg 93%
    21:00 +17°C° 0.2 mm 2 mps 680 mmHg 92%
    22:00 +17°C° 0.2 mm 2 mps 680 mmHg 92%
    23:00 +17°C° 0 mm 2 mps 680 mmHg 90%
    Show more